Location: Twillingate Astronomical Observatory
(49.6173°N, 54.7580°W)
Time: 18:00:27
(UTC-02:-30)

Amateur Radio Satellites - All Passes

Search period start: 28 July 2014 17:30
Search period end: 29 July 2014 17:30
Location: Twillingate Astronomical Observatory, 49.6173°N, 54.7580°W

Satellite Date Start Highest point End Downlink Frequencies (MHz)
Time Altitude Azimuth
OPAL 28 Jul 17:33:41 17:38:46 79° 107° (ESE) 17:43:54 ?
UOSAT-12 28 Jul 17:46:40 17:50:15 21° 334° (NNW) 17:53:53 437.025 FM, 437.400 FM
JAS-2 28 Jul 17:52:02 17:59:35 59° 68° (ENE) 18:06:35 435.800 - 435.900 CW/SSB, 435.910 FM
Saudisat 1A 28 Jul 17:52:03 17:55:15 20° 246° (WSW) 17:58:25 436.775 MHz
Hamsat 28 Jul 17:59:41 18:03:49 65° 73° (ENE) 18:08:00 145.90 MHz
AO-7 28 Jul 18:16:36 18:22:59 24° 271° (W) 18:29:25 29.400 - 29.500 MHz
SO-67 28 Jul 18:49:53 18:53:02 33° 70° (ENE) 18:56:13 435.3500 MHz FM
SO-50 28 Jul 19:07:11 19:10:24 18° 21° (NNE) 19:13:38 436.795 FM
OPAL 28 Jul 19:13:36 19:17:07 19° 306° (NW) 19:20:40 ?
UOSAT-12 28 Jul 19:29:52 19:32:09 13° 359° (N) 19:34:25 437.025 FM, 437.400 FM
HO-68 28 Jul 19:37:09 19:43:04 29° 53° (NE) 19:48:58 435.675 MHz FM
JAS-2 28 Jul 19:37:49 19:44:51 37° 266° (W) 19:51:30 435.800 - 435.900 CW/SSB, 435.910 FM
Hamsat 28 Jul 19:37:53 19:40:15 15° 272° (W) 19:42:39 145.90 MHz
RS-15 28 Jul 19:40:54 19:50:57 39° 13° (NNE) 20:01:09 29.354 - 29.394 USB, Beacon 29.352 USB
STRAND 1 28 Jul 19:55:59 20:01:04 61° 102° (ESE) 20:06:06 ?
UKube-1 28 Jul 20:13:33 20:16:39 19° 60° (ENE) 20:19:46 145.840 MHz, 145.915 MHz
SO-67 28 Jul 20:23:40 20:26:13 19° 268° (W) 20:28:48 435.3500 MHz FM
SO-50 28 Jul 20:47:21 20:51:59 53° 44° (NE) 20:56:40 436.795 FM
Oscar 11 28 Jul 20:58:40 21:02:11 25° 64° (ENE) 21:05:43 145.825 FM, Beacon 2401.500 USB
MaSat-1 28 Jul 21:03:07 21:06:00 18° 102° (ESE) 21:09:09 437.345 MHz
UOSAT-12 28 Jul 21:10:39 21:14:05 19° 23° (NNE) 21:17:32 437.025 FM, 437.400 FM
FUNcube-1 28 Jul 21:19:49 21:22:36 17° 60° (ENE) 21:25:21 145.950 - 145.970 MHz USB
HO-68 28 Jul 21:23:00 21:30:11 76° 254° (WSW) 21:37:23 435.675 MHz FM
STRAND 1 28 Jul 21:35:54 21:39:53 24° 301° (WNW) 21:43:51 ?
UKube-1 28 Jul 21:48:09 21:52:28 59° 258° (WSW) 21:56:49 145.840 MHz, 145.915 MHz
RS-15 28 Jul 21:54:29 22:05:29 71° 44° (NE) 22:16:48 29.354 - 29.394 USB, Beacon 29.352 USB
SO-50 28 Jul 22:28:16 22:32:22 29° 243° (WSW) 22:36:29 436.795 FM
Oscar 11 28 Jul 22:34:08 22:38:12 41° 262° (W) 22:42:18 145.825 FM, Beacon 2401.500 USB
MaSat-1 28 Jul 22:38:24 22:42:40 67° 304° (NW) 22:47:37 437.345 MHz
UOSAT-12 28 Jul 22:50:27 22:55:10 61° 45° (NE) 22:59:50 437.025 FM, 437.400 FM
FUNcube-1 28 Jul 22:54:19 22:58:36 63° 258° (WSW) 23:02:49 145.950 - 145.970 MHz USB
HO-68 28 Jul 23:14:49 23:19:05 17° 275° (W) 23:23:23 435.675 MHz FM
RS-15 29 Jul 00:07:16 00:17:20 44° 249° (WSW) 00:27:45 29.354 - 29.394 USB, Beacon 29.352 USB
MaSat-1 29 Jul 00:17:59 00:21:04 17° 328° (NNW) 00:24:20 437.345 MHz
ISS 29 Jul 00:28:56 00:31:51 28° 145° (SE) 00:34:46 145.800 FM
UOSAT-12 29 Jul 00:31:12 00:35:00 24° 245° (WSW) 00:38:45 437.025 FM, 437.400 FM
Sapphire 29 Jul 00:36:56 00:41:06 23° 109° (ESE) 00:45:17 437.095 MHz 1200 baud AX-25 AFSK
PCSat 29 Jul 01:09:11 01:14:16 43° 116° (ESE) 01:19:22 145.825 MHz
AO-40 29 Jul 01:14:48 05:32:19 27° 154° (SSE) 07:10:37 Beacon 2401.320
Oscar 16 29 Jul 01:28:02 01:30:54 15° 87° (E) 01:33:45 437.025 USB, Beacon 2401.1428
ISS 29 Jul 02:04:59 02:08:20 83° 344° (NNW) 02:11:43 145.800 FM
AO-27 29 Jul 02:07:33 02:10:33 15° 87° (E) 02:13:33 436.795 MHz FM
Uribyol 2 29 Jul 02:07:47 02:10:55 16° 88° (E) 02:14:02 436.500 FM
Sapphire 29 Jul 02:18:39 02:24:03 69° 309° (NW) 02:29:29 437.095 MHz 1200 baud AX-25 AFSK
Gurwin Techsat 1B 29 Jul 02:30:31 02:31:33 11° 83° (E) 02:32:34 435.225 FM
Oscar 19 29 Jul 02:37:26 02:42:30 53° 100° (E) 02:47:34 437.125 CW, 437.150 USB
PCSat 29 Jul 02:52:37 02:57:44 41° 316° (NW) 03:02:54 145.825 MHz
AO-Echo 29 Jul 02:55:21 03:00:10 39° 97° (E) 03:04:47 ?
JAS-1B 29 Jul 03:01:40 03:10:28 40° 91° (E) 03:18:10 435.800 - 435.900 CW/SSB
Oscar 16 29 Jul 03:05:46 03:10:58 88° 286° (WNW) 03:16:09 437.025 USB, Beacon 2401.1428
OPAL 29 Jul 03:15:02 03:19:32 36° 62° (ENE) 03:24:04 ?
ITAMSAT 1 29 Jul 03:26:21 03:31:32 67° 103° (ESE) 03:36:40 435.822 SSB
ISS 29 Jul 03:41:54 03:45:15 60° 4° (N) 03:48:35 145.800 FM
TMSAT-1 29 Jul 03:43:09 03:47:56 33° 95° (E) 03:52:41 436.925 FM
AO-27 29 Jul 03:45:33 03:50:47 85° 287° (WNW) 03:55:58 436.795 MHz FM
Uribyol 2 29 Jul 03:45:52 03:51:04 82° 287° (WNW) 03:56:13 436.500 FM
Sapphire 29 Jul 04:04:25 04:08:28 21° 331° (NNW) 04:12:32 437.095 MHz 1200 baud AX-25 AFSK
Gurwin Techsat 1B 29 Jul 04:07:13 04:12:32 68° 103° (ESE) 04:17:49 435.225 FM
Oscar 19 29 Jul 04:17:19 04:21:35 27° 299° (WNW) 04:25:50 437.125 CW, 437.150 USB
AO-7 29 Jul 04:18:18 04:24:37 23° 89° (E) 04:30:51 29.400 - 29.500 MHz
AO-Echo 29 Jul 04:34:17 04:38:52 33° 296° (WNW) 04:43:17 ?
PCSat 29 Jul 04:39:23 04:42:39 16° 341° (NNW) 04:45:56 145.825 MHz
Oscar 16 29 Jul 04:46:29 04:49:38 17° 305° (NW) 04:52:47 437.025 USB, Beacon 2401.1428
JAS-1B 29 Jul 04:51:59 05:01:30 64° 295° (WNW) 05:09:47 435.800 - 435.900 CW/SSB
Uosat F 29 Jul 04:52:19 04:56:49 32° 96° (E) 05:01:16 435.120 FM
OPAL 29 Jul 04:53:55 04:58:26 35° 261° (W) 05:03:00 ?
ITAMSAT 1 29 Jul 05:06:40 05:10:35 22° 302° (WNW) 05:14:28 435.822 SSB
KITSAT 1 29 Jul 05:10:33 05:14:52 16° 99° (E) 05:19:11 435.175 FM
MaSat-1 29 Jul 05:15:31 05:19:48 24° 40° (NE) 05:24:03 437.345 MHz
ISS 29 Jul 05:18:42 05:22:03 66° 204° (SSW) 05:25:23 145.800 FM
TMSAT-1 29 Jul 05:23:00 05:27:58 41° 294° (WNW) 05:32:53 436.925 FM
AO-27 29 Jul 05:26:27 05:29:34 16° 306° (NW) 05:32:40 436.795 MHz FM
Uribyol 2 29 Jul 05:26:50 05:29:47 16° 307° (NW) 05:32:44 436.500 FM
Oscar 10/S400 29 Jul 05:30:11 06:39:50 34° 230° (SW) 10:53:36 145.825 - 145.975 CW/USB, Beacon 145.810 USB
STRAND 1 29 Jul 05:38:42 05:42:42 24° 59° (ENE) 05:46:43 ?
Gurwin Techsat 1B 29 Jul 05:48:01 05:52:03 22° 302° (WNW) 05:56:04 435.225 FM
Sapphire 29 Jul 05:51:53 05:54:05 12° 357° (N) 05:56:17 437.095 MHz 1200 baud AX-25 AFSK
AO-7 29 Jul 06:10:07 06:18:32 89° 110° (ESE) 06:26:51 29.400 - 29.500 MHz
PCSat 29 Jul 06:26:05 06:28:27 13° 7° (N) 06:30:50 145.825 MHz
Uosat F 29 Jul 06:31:00 06:35:42 40° 294° (WNW) 06:40:21 435.120 FM
JAS-2 29 Jul 06:43:13 06:48:31 30° 91° (E) 06:53:20 435.800 - 435.900 CW/SSB, 435.910 FM
JAS-1B 29 Jul 06:43:20 06:50:07 22° 318° (NW) 06:56:28 435.800 - 435.900 CW/SSB
MaSat-1 29 Jul 06:52:27 06:57:49 84° 241° (WSW) 07:02:58 437.345 MHz
ISS 29 Jul 06:56:12 06:58:17 16° 222° (SW) 07:00:22 145.800 FM
KITSAT 1 29 Jul 07:00:45 07:08:44 66° 120° (ESE) 07:16:45 435.175 FM
STRAND 1 29 Jul 07:16:25 07:21:31 62° 258° (WSW) 07:26:38 ?
Hamsat 29 Jul 07:16:48 07:21:07 75° 102° (ESE) 07:25:26 145.90 MHz
Sapphire 29 Jul 07:36:10 07:39:49 18° 24° (NNE) 07:43:28 437.095 MHz 1200 baud AX-25 AFSK
SO-67 29 Jul 07:42:39 07:45:28 22° 94° (E) 07:48:16 435.3500 MHz FM
Saudisat 1A 29 Jul 08:01:31 08:05:35 37° 120° (ESE) 08:09:41 436.775 MHz
AO-7 29 Jul 08:03:40 08:10:26 29° 313° (NW) 08:17:10 29.400 - 29.500 MHz
PCSat 29 Jul 08:09:29 08:13:54 25° 33° (NNE) 08:18:19 145.825 MHz
JAS-2 29 Jul 08:28:01 08:33:58 49° 294° (WNW) 08:39:16 435.800 - 435.900 CW/SSB, 435.910 FM
MaSat-1 29 Jul 08:31:24 08:34:22 15° 260° (W) 08:37:15 437.345 MHz
HO-68 29 Jul 08:47:26 08:51:44 17° 85° (E) 08:56:00 435.675 MHz FM
Hamsat 29 Jul 08:54:03 08:56:34 15° 301° (WNW) 08:59:05 145.90 MHz
KITSAT 1 29 Jul 08:56:54 09:04:36 45° 324° (NW) 09:12:19 435.175 FM
SO-67 29 Jul 09:15:31 09:18:34 28° 292° (WNW) 09:21:36 435.3500 MHz FM
Sapphire 29 Jul 09:19:11 09:24:30 52° 47° (NE) 09:29:48 437.095 MHz 1200 baud AX-25 AFSK
UKube-1 29 Jul 09:33:02 09:35:57 17° 91° (E) 09:38:51 145.840 MHz, 145.915 MHz
Saudisat 1A 29 Jul 09:41:01 09:45:11 39° 320° (NW) 09:49:22 436.775 MHz
PCSat 29 Jul 09:52:36 09:58:04 89° 55° (NE) 10:03:31 145.825 MHz
AO-7 29 Jul 09:58:53 10:00:28 11° 338° (NNW) 10:02:04 29.400 - 29.500 MHz
JAS-2 29 Jul 10:15:38 10:17:28 11° 318° (NW) 10:19:15 435.800 - 435.900 CW/SSB, 435.910 FM
Oscar 11 29 Jul 10:17:26 10:21:08 26° 94° (E) 10:24:48 145.825 FM, Beacon 2401.500 USB
HO-68 29 Jul 10:33:27 10:40:39 77° 106° (ESE) 10:47:47 435.675 MHz FM
FUNcube-1 29 Jul 10:39:55 10:42:44 17° 91° (E) 10:45:34 145.950 - 145.970 MHz USB
KITSAT 1 29 Jul 10:55:47 11:02:17 25° 352° (N) 11:08:47 435.175 FM
Sapphire 29 Jul 11:02:58 11:07:44 32° 248° (WSW) 11:12:29 437.095 MHz 1200 baud AX-25 AFSK
UKube-1 29 Jul 11:08:15 11:12:34 59° 289° (WNW) 11:16:50 145.840 MHz, 145.915 MHz
Saudisat 1A 29 Jul 11:23:26 11:25:57 15° 343° (NNW) 11:28:27 436.775 MHz
PCSat 29 Jul 11:37:21 11:40:46 17° 255° (WSW) 11:44:11 145.825 MHz
Oscar 11 29 Jul 11:53:24 11:57:25 37° 292° (WNW) 12:01:25 145.825 FM, Beacon 2401.500 USB
JAS-1B 29 Jul 12:03:38 12:09:32 19° 37° (NE) 12:15:31 435.800 - 435.900 CW/SSB
FUNcube-1 29 Jul 12:15:25 12:19:29 53° 289° (WNW) 12:23:34 145.950 - 145.970 MHz USB
Oscar 19 29 Jul 12:21:22 12:25:05 21° 57° (ENE) 12:28:48 437.125 CW, 437.150 USB
HO-68 29 Jul 12:21:52 12:27:45 29° 307° (NW) 12:33:36 435.675 MHz FM
RS-15 29 Jul 12:26:54 12:34:50 24° 101° (E) 12:42:39 29.354 - 29.394 USB, Beacon 29.352 USB
AO-Echo 29 Jul 12:36:18 12:39:21 16° 54° (NE) 12:42:23 ?
SO-50 29 Jul 12:47:04 12:51:03 33° 118° (ESE) 12:55:09 436.795 FM
Oscar 16 29 Jul 12:48:42 12:53:16 34° 64° (ENE) 12:57:51 437.025 USB, Beacon 2401.1428
KITSAT 1 29 Jul 12:53:31 13:00:30 30° 21° (NNE) 13:07:27 435.175 FM
Saudisat 1A 29 Jul 13:05:31 13:07:22 12° 8° (N) 13:09:13 436.775 MHz
ITAMSAT 1 29 Jul 13:10:38 13:14:55 27° 60° (ENE) 13:19:12 435.822 SSB
AO-27 29 Jul 13:29:20 13:34:05 37° 64° (ENE) 13:38:51 436.795 MHz FM
Uribyol 2 29 Jul 13:29:23 13:34:08 38° 65° (ENE) 13:38:54 436.500 FM
TMSAT-1 29 Jul 13:31:28 13:34:22 15° 53° (NE) 13:37:17 436.925 FM
AO-7 29 Jul 13:33:58 13:38:38 17° 34° (NE) 13:43:18 29.400 - 29.500 MHz
JAS-1B 29 Jul 13:48:56 13:57:43 50° 60° (ENE) 14:07:05 435.800 - 435.900 CW/SSB
Gurwin Techsat 1B 29 Jul 13:54:07 13:58:33 28° 61° (ENE) 14:03:00 435.225 FM
Oscar 19 29 Jul 13:58:49 14:03:55 72° 257° (WSW) 14:09:04 437.125 CW, 437.150 USB
AO-Echo 29 Jul 14:11:59 14:17:18 79° 73° (ENE) 14:22:39 ?
SO-50 29 Jul 14:27:12 14:31:31 44° 319° (NW) 14:35:58 436.795 FM
Oscar 16 29 Jul 14:27:46 14:32:33 40° 263° (W) 14:37:23 437.025 USB, Beacon 2401.1428
RS-15 29 Jul 14:34:21 14:45:24 79° 125° (SE) 14:56:20 29.354 - 29.394 USB, Beacon 29.352 USB
Uosat F 29 Jul 14:34:29 14:36:46 13° 52° (NE) 14:39:03 435.120 FM
Saudisat 1A 29 Jul 14:44:47 14:48:28 25° 32° (NNE) 14:52:08 436.775 MHz
UOSAT-12 29 Jul 14:45:39 14:49:54 37° 119° (ESE) 14:54:14 437.025 FM, 437.400 FM
ITAMSAT 1 29 Jul 14:49:01 14:54:07 54° 259° (W) 14:59:15 435.822 SSB
KITSAT 1 29 Jul 14:49:19 14:57:25 69° 48° (NE) 15:05:28 435.175 FM
TMSAT-1 29 Jul 15:08:10 15:13:28 77° 73° (ENE) 15:18:47 436.925 FM
AO-27 29 Jul 15:08:47 15:13:36 37° 263° (W) 15:18:27 436.795 MHz FM
Uribyol 2 29 Jul 15:08:53 15:13:39 36° 264° (W) 15:18:26 436.500 FM
AO-7 29 Jul 15:21:37 15:29:30 48° 58° (ENE) 15:37:24 29.400 - 29.500 MHz
Gurwin Techsat 1B 29 Jul 15:33:04 15:38:15 53° 260° (W) 15:43:29 435.225 FM
JAS-1B 29 Jul 15:39:07 15:48:01 57° 263° (W) 15:57:47 435.800 - 435.900 CW/SSB
Oscar 19 29 Jul 15:43:09 15:44:13 11° 276° (W) 15:45:18 437.125 CW, 437.150 USB
AO-Echo 29 Jul 15:53:10 15:56:41 18° 272° (W) 16:00:13 ?
Uosat F 29 Jul 16:09:40 16:14:41 70° 71° (ENE) 16:19:44 435.120 FM
SO-50 29 Jul 16:10:21 16:13:15 16° 342° (NNW) 16:16:10 436.795 FM
Saudisat 1A 29 Jul 16:24:06 16:28:32 75° 233° (SW) 16:32:55 436.775 MHz
UOSAT-12 29 Jul 16:25:37 16:30:03 42° 320° (NW) 16:34:34 437.025 FM, 437.400 FM
Hamsat 29 Jul 16:41:22 16:43:10 13° 57° (ENE) 16:44:59 145.90 MHz
KITSAT 1 29 Jul 16:45:14 16:52:21 36° 250° (WSW) 16:59:27 435.175 FM
RS-15 29 Jul 16:48:15 16:58:45 47° 333° (NNW) 17:09:16 29.354 - 29.394 USB, Beacon 29.352 USB
TMSAT-1 29 Jul 16:50:28 16:54:00 18° 272° (W) 16:57:33 436.925 FM
OPAL 29 Jul 16:58:40 17:03:27 40° 100° (E) 17:08:15 ?
JAS-2 29 Jul 16:58:45 17:05:07 30° 58° (ENE) 17:11:03 435.800 - 435.900 CW/SSB, 435.910 FM
AO-7 29 Jul 17:14:14 17:22:18 51° 259° (W) 17:30:25 29.400 - 29.500 MHz
